Miscellaneous Local Product
Issued by NWS North Platte, NE

Home | Current Version | Previous Version | Graphics & Text | Print | Product List | Glossary On
Versions: 1 2 3 4 5 6 7 8 9 10 11 12 13 14 15 16 17 18 19 20 21 22 23 24 25 26 27 28 29 30 31 32 33 34 35 36 37 38 39 40 41 42 43 44 45 46 47 48 49 50
009
AXUS43 KLBF 181010
MISLBF


WESTERN AND NORTH CENTRAL NEBRASKA HOURLY WEATHER ROUNDUP
NATIONAL WEATHER SERVICE NORTH PLATTE NE
400 AM CST WED JAN 18 2017

NOTE: "FAIR" INDICATES FEW OR NO CLOUDS BELOW 12,000 FEET WITH NO
SIGNIFICANT WEATHER AND/OR OBSTRUCTIONS TO VISIBILITY.

NOTE: STATIONS NOT REPORTING VARIABLES SUCH AS SKY/WEATHER OR
PRESSURE ARE PROVIDED BY RAWS AND APRS NETWORKS AND ARE NOT UNDER
NATIONAL WEATHER SERVICE QUALITY CONTROL.

...OBSERVATIONS IN AND NEAR THE EASTERN PANHANDLE OF NEBRASKA...

CITY           SKY/WX    TMP DP  RH WIND       PRES   REMARKS
PINE RIDGE     CLOUDY    28  15  58 SW8       29.90F WCI  20
CHADRON        CLOUDY    27  15  61 SW7       29.93F WCI  19
ALLIANCE       CLOUDY    16  11  80 W8        29.93F WCI   5
SIDNEY         CLOUDY    23  18  81 NW12      29.94F WCI  12
CRESCENT LAKE    N/A     25  16  69 W6          N/A  WCI  18
$$

...OBSERVATIONS IN NORTHERN NEBRASKA AND FAR SOUTHERN SOUTH DAKOTA...

CITY           SKY/WX    TMP DP  RH WIND       PRES   REMARKS
WINNER         FAIR      33  20  58 SW8       29.88F WCI  26
VALENTINE      CLOUDY    23  18  81 SW14      29.91S WCI  11
THEDFORD       CLOUDY    29  26  89 W9        29.93F WCI  20
AINSWORTH      CLOUDY    28  25  89 SW9       29.92S WCI  19
O`NEILL        CLOUDY    34  31  87 SW12      29.93F WCI  25
ORD            CLOUDY    32  25  75 SW8       29.96F WCI  25
BROKEN BOW     CLOUDY    30  27  88 CALM      29.96F
VALENTINE NWR    N/A     29  21  71 SW6         N/A  WCI  23
BUTTE            N/A     28  24  86 SW10        N/A  WCI  19
HALSEY           N/A     30  26  86 SW6G14      N/A  WCI  24
SARGENT          N/A     32  27  81 CALM        N/A
CHAMBERS         N/A     32  28  86 S3          N/A
EWING            N/A     33  29  86 SW5         N/A  WCI  28
$$

...OBSERVATIONS IN SOUTHWEST NEBRASKA AND FAR NORTHEAST COLORADO...

CITY           SKY/WX    TMP DP  RH WIND       PRES   REMARKS
WRAY           FAIR      25  23  93 W5        30.00  WCI  19
HOLYOKE        FAIR      18  12  79 W8        29.97F WCI   7
IMPERIAL       CLOUDY    26  22  84 W9        29.97F WCI  17
OGALLALA       CLOUDY    21  19  93 CALM      29.97S FOG
NORTH PLATTE   CLOUDY    25  23  92 CALM      29.98F
MCCOOK         CLEAR     26  26 100 SW7       30.01F WCI  18
LEXINGTON      CLOUDY    32  28  86 SW5       29.99F WCI  27
STAPLETON        N/A     26  24  90 CALM        N/A
GOTHENBURG       N/A     37  30  75 SW8         N/A  WCI  31
CALLAWAY         N/A     31  28  89 SW8         N/A  WCI  24
$$

...OBSERVATIONS IN CENTRAL LINCOLN COUNTY AREA...

CITY           SKY/WX    TMP DP  RH WIND       PRES   REMARKS
N.P. AIRPORT   CLOUDY    25  23  92 CALM      29.98F
N.P. DOWNTOWN    N/A     28  26  91 CALM        N/A
N.P. SOUTHEAST   N/A     28  25  88 CALM        N/A
N.P. HILLCREST   N/A     28  26  94 W3          N/A
$$

...SOME OBSERVATIONS FROM AROUND THE REGION...

CITY           SKY/WX    TMP DP  RH WIND       PRES   REMARKS
LARAMIE        CLOUDY     2  -1  88 NW7       30.03F WCI -11
CHEYENNE       CLOUDY    23  12  62 W8        29.97S WCI  14
DENVER         CLOUDY    27  16  63 SW12      29.95F WCI  17
AKRON          CLOUDY    25  16  68 W12       29.95F WCI  14
SCOTTSBLUFF    CLOUDY    21  14  74 W6        29.96S WCI  13
RAPID CITY     CLEAR     31  19  61 NW6       29.84F WCI  25
BISMARCK       CLOUDY    19  14  81 NE3       29.76R
PIERRE         CLOUDY    15  12  88 S5        29.85F WCI   8
SIOUX FALLS    CLOUDY    30  27  88 S9        29.93F WCI  22
OMAHA          CLOUDY    26  21  81 S10       30.07F WCI  16
GRAND ISLAND   CLOUDY    34  29  82 SW12      30.01F WCI  25
KANSAS CITY    PTCLDY    29  27  92 SW5       30.13F FOG     WCI  24
WICHITA        PTCLDY    36  32  85 CALM      30.12F
OKLAHOMA CITY  CLOUDY    41  37  86 SE3       30.13F
DALLAS         CLOUDY    48  46  93 NE6       30.10F
AMARILLO       PTCLDY    38  37  97 SW8       30.08F WCI  32
DODGE CITY     PTCLDY    38  32  79 SW14G22   30.05F WCI  30
HAYS           CLOUDY    30  26  85 W5        30.06F WCI  25
GOODLAND       CLEAR     30  28  92 SW7       29.98F WCI  23
$$




USA.gov is the U.S. government's official web portal to all federal, state and local government web resources and services.